Location: Charlotte
(35.2269°N, 80.8433°W)
Time: 07:44:11
(UTC-05:00)

ISS - Visible Passes

Search period start: 02 March 2015 00:00
Search period end: 12 March 2015 01:00
Orbit: 397 x 407 km, 51.6° (Epoch: 02 March)

Date Brightness Start Highest point End Pass type
(mag) Time Alt. Az. Time Alt. Az. Time Alt. Az.
09 Mar -1.0 06:26:29 10° S 06:29:01 22° SE 06:31:37 10° ENE visible
10 Mar -0.2 05:35:36 10° SE 05:35:59 10° SE 05:36:32 10° ESE visible
10 Mar -3.2 07:08:53 10° WSW 07:12:04 57° NW 07:15:16 10° NE visible
11 Mar -3.0 06:17:48 36° SSW 06:18:52 61° SE 06:22:04 10° NE visible
